User: anonymous   Login
Location: Unspecified
(0.0000°N, 0.0000°E)
Time: 09:27:07
(UTC+02:00)
Language:

Cosmos 1892 Rocket - Orbit

View from above orbital plane
View from above orbital plane
View from above satellite
View from above satellite

Ground track
Ground track

The orbit data is extracted from the following two-line orbital elements,

1 18422U 87088B   17112.90424289 +.00000142 +00000-0 +14622-4 0  9994
2 18422 082.5134 228.6671 0018085 260.5072 239.2270 14.82920453572533
Epoch (UTC): 22 April 2017 21:42:06
Eccentricity: 0.0018085
inclination: 82.5134°
perigee height: 607 km
apogee height: 633 km
right ascension of ascending node: 228.6671°
argument of perigee: 260.5072°
revolutions per day: 14.82920453
mean anomaly at epoch: 239.2270°
orbit number at epoch: 57253

The dashed part of the orbit path shows where the satellite is in the earth's shadow,  

DLR